CZ-4 DEB, 35329

Orbit data source: Space-Track

CZ-4 DEB, 35329 is space debris in SSO originally from a launch on Thu, 14 Oct 1999 UTC launched from the Taiyaun Space Center, China (TSC). Debris objects in space refer to the collection of defunct objects orbiting the Earth. Examples of debris include non-operational satellites, rocket bodies, and fragments generated from explosions, collisions, or faulty payload assembly.

Loading next visibility...
Identifier
35329, 1999-057SH
Orbit
SSO
Country
Flag of CNCN / PRC
Related business
Manufacturer
Unknown
Mission
Spacecraft
Bus & Motor
Unknown
Mass
Unknown
Launch date (UTC)
1999-10-14 (27 years ago)
Launch vehicle
Unknown
Launch site
Taiyaun Space Center, China (TSC)
Object type
Payload
Rocket body
Debris
Shape & HBR
Unknown shape, 0.1 m
Radar Cross Section
Small (<0.1 m²)

Expand to show TLE details & history
Last TLE update: 5 days ago

TLE from 5 days ago
0 CZ-4 DEB
1 35329U 99057SH  26123.15985248  .00000198  00000-0  88312-4 0  9992
2 35329  98.3959 249.5001 0130720 234.9623 249.5148 14.28501614239289
Epoch: 2026-05-03T03:50Z
TLE epoch observation values (Epoch: 2026-05-03T03:50:11.254Z)
Latitude
56.08644°
Longitude
163.49925°
Altitude
839.971 km
Speed
7.421 km/s
True Right ascension
05h 28m 27s
True Declination
55° 55' 44"
Sunlit
Object was in daylight at epoch
Visualization orbit readout
Latitude
Unknown
Longitude
Unknown
Altitude
Unknown
Speed
Unknown
Apparent Right ascension
Unknown
Apparent Declination
Unknown
Sunlit
N/A
Visualization observer readout
Local Sidereal Time
02:10:30
Azimuth
Unknown
Elevation
Unknown
Doppler factor
Unknown
Orbital elements
Apogee altitude
887.628 km
Perigee altitude
700.123 km
Semi-major axis
7,172.012 km
Eccentricity
0.01307
Inclination
98.3959°
RAAN
249.5001°
Arg. of periapsis
234.9623°
True anomaly
248.1197°
Mean anomaly
249.5148°
Eccentric anomaly
248.81644°
Mean motion
3.5734 °/min
Orbital period
100.74 mins
BSTAR
0.000088312
Loading maneuver chart data...
Computing Atmospheric mass density...

Documentation

Showing up to 5 results
|